Current Version              Previous Version:    01  02  03  04  05  06  07  08  09  10  11  12  13  14  15  16  17  18  19  20  21  22  23  24  25  26  27  28  29  30  
   31  32  33  34  35  36  37  38  39  40  41  42  43  44  45  46  47  48  49  50  51  52  53  54  55  56  57  58  59  60  

[Printable]
271
ASUS44 KFWD 211715
RWRTX
NORTH TEXAS HOURLY WEATHER ROUNDUP
NATIONAL WEATHER SERVICE FORT WORTH TX
1200 PM CDT THU AUG 21 2014

NOTE: "FAIR" INDICATES FEW OR NO CLOUDS BELOW 12,000 FEET WITH NO
SIGNIFICANT WEATHER AND/OR OBSTRUCTIONS TO VISIBILITY.

TXZ118-119-211800-
DALLAS/FORT WORTH METROPLEX

CITY           SKY/WX    TMP DP  RH WIND       PRES   REMARKS
DFW AIRPORT    PTSUNNY   91  72  53 S18       30.02S HX  98
DALLAS LOVE    PTSUNNY   90  71  53 SW13      30.03S HX  96
FTW MEACHAM    PTSUNNY   91  72  53 S20       30.01F HX  98
DAL-EXECUTIVE  MOSUNNY   92  70  48 S13G24    30.03S HX  97
FTW-ALLIANCE   PTSUNNY   90  71  53 S15G23    30.01S HX  96
FTW-NAS-JRB    CLOUDY    93  69  45 S14G24    30.06S HX  98
FTW-SPINKS     PTSUNNY   91  72  52 S14       30.05S HX  98
ARLINGTON      PTSUNNY   90  70  51 S15G22    30.03S HX  95
GRAND PRAIRIE  MOSUNNY   88  72  58 S12G21    30.04F HX  94
ADDISON        PTSUNNY   90  70  51 S15G26    30.04  HX  95
MESQUITE       MOSUNNY   91  70  49 S18G25    30.04F HX  97
LANCASTER      SUNNY     91  67  44 S10G24    30.04F HX  94
$$

TXZ091>094-102>105-117-120-121-131>134-211800-
NORTH CENTRAL TEXAS

CITY           SKY/WX    TMP DP  RH WIND       PRES   REMARKS
SHRMAN/DENISON PTSUNNY   88  72  58 S15G21    30.04F HX  94
GAINESVILLE    MOSUNNY   87  73  64 S16G24    30.04F HX  94
BOWIE          SUNNY     90  71  53 S12G23    30.01F HX  96
BRIDGEPORT     MOSUNNY   90  68  47 S13       30.03S HX  93
DECATUR        MOSUNNY   89  70  54 S12G21    30.03S HX  94
DENTON         CLOUDY    89  71  55 S18G25    30.02F HX  95
MCKINNEY       CLOUDY    87  72  60 S15G24    30.03F HX  93
GREENVILLE     MOSUNNY   91  70  49 S16       30.05F HX  97
ROCKWALL       MOSUNNY   89  73  58 SW12G22   30.03F HX  97
TERRELL        SUNNY     93  70  46 S16       30.04F HX  99
WAXAHACHIE     MOSUNNY   91  65  41 S17G28    30.05S HX  93
CLEBURNE       SUNNY     90  72  55 S14G23    30.05S HX  96
GRANBURY       PTSUNNY   93  69  45 S16G23    30.03S HX  98
$$

TXZ083>090-098>101-113>116-127>130-139>142-154-155-211800-
WESTERN NORTH TEXAS

CITY           SKY/WX    TMP DP  RH WIND       PRES   REMARKS
WICHITA FALLS  SUNNY     93  71  48 S16G26    29.96F HX 100
WF-KICKAPOO    SUNNY     93  67  43 S12G21    29.99S HX  96
VERNON         SUNNY     94  67  41 S17G23    29.97F HX  98
ABILENE        SUNNY     90  70  51 S20G30    30.03S HX  95
ABILENE-DYESS  MOSUNNY   89  71  55 S23       30.01S HX  94
BRECKENRIDGE   SUNNY     94  68  43 SW13G22   30.00F HAZE    HX  98
GRAHAM         SUNNY     93  69  45 S9        29.98F HX  98
MINERAL WELLS  MOSUNNY   91  72  53 S13G22    30.01S HX  98
STEPHENVILLE   MOSUNNY   90  69  50 S16       30.06F HX  94
COMANCHE       MOSUNNY   91  68  46 S15G21    30.04F HX  95
BROWNWOOD      SUNNY     90  68  48 S15       30.04S HX  93
COLEMAN        MOSUNNY   87  71  58 SW14G21   30.05F HX  92
BRADY          SUNNY     88  70  55 S10       30.06S HX  92
$$

TXZ143>147-156>162-174-175-211800-
CENTRAL TEXAS

CITY           SKY/WX    TMP DP  RH WIND       PRES   REMARKS
WACO           SUNNY     93  68  43 S17       30.04F HX  97
WACO-TSTC      SUNNY     93  66  40 S16       30.04F HX  96
WACO-MCGREGOR  SUNNY     93  66  40 S16G28    30.04F HX  96
HILLSBORO      SUNNY     92  65  41 S15G24    30.05S HX  94
CORSICANA      SUNNY     94  67  41 S16G26    30.06F HX  97
MEXIA          SUNNY     92  70  49 S13G22    30.05F HX  97
HEARNE           N/A     94  68  43 SE15G26   30.06S HX  98
CAMERON        SUNNY     93  68  43 SW18G25   30.05F HX  97
TEMPLE         SUNNY     93  64  38 S22G29    30.04F HX  95
KILLEEN        MOSUNNY   90  66  45 S17G25    30.05S HX  92
KILLEEN-SKYLRK SUNNY     93  64  38 S12G24    30.05S HX  95
FORT HOOD      SUNNY     93  66  40 S17G25    30.04F HX  96
GATESVILLE     SUNNY     91  64  40 S12G22    30.07S HX  93
HAMILTON       SUNNY     91  65  41 S18G30    30.06F HX  93
LAMPASAS       SUNNY     91  65  43 S15       30.05F HX  93
$$

TXZ095>097-106>112-122>126-135>138-148>153-164>167-211800-
EAST TEXAS

CITY           SKY/WX    TMP DP  RH WIND       PRES   REMARKS
PARIS          MOSUNNY   88  72  58 SW12G23   30.07S HX  94
SULPHUR SPRNGS PTSUNNY   90  71  53 S17G24    30.08F HX  96
CLARKSVILLE    MOSUNNY   88  73  61 S9        30.07F HX  96
MOUNT PLEASANT MOSUNNY   91  73  55 S9G18     30.09F HX  98
GILMER         SUNNY     90  73  58 SW12G22   30.10S HX  98
MINEOLA        MOSUNNY   90  73  58 S10G16    30.08S HX  98
TYLER          MOSUNNY   90  73  57 SW15      30.08S HX  98
LONGVIEW       PTSUNNY   89  74  60 SW10      30.09S HX  98
MARSHALL       MOSUNNY   91  77  64 S9        30.11S HX 103
ATHENS         MOSUNNY   88  73  62 S15       30.06F HX  96
PALESTINE      MOSUNNY   90  75  61 S12       30.08F HX 100
JACKSONVILLE   PTSUNNY   88  73  60 S14       30.12S HX  96
HENDERSON      CLOUDY    88  74  63 SW8       30.11S HX  97
NACOGDOCHES    SUNNY     88  77  70 S9        30.10F HX 100
LUFKIN         MOSUNNY   92  75  57 S12       30.10S HX 103
$$

SUPPLEMENTAL OBSERVATIONS (CENTRAL)

CITY           SKY/WX    TMP DP  RH WIND       PRES   REMARKS
LAKE TEXOMA      N/A     86  70  58 SW15        N/A  HX  90
CADDO GRASSLND   N/A     88  73  62 S12G20      N/A  HX  96
PAT MAYSE LAKE   N/A     84  70  61 S16         N/A
GREENVILLE       N/A     90  72  55 S14G22      N/A  HX  96
CEDAR HILL       N/A     91  70  49 S10G20      N/A  HX  97
ATHENS           N/A     91  72  52 S13G21      N/A  HX  98
LAKE LIMESTONE   N/A     95  70  43 S10G21      N/A  HX 101
MCGREGOR         N/A     93  63  36 SW13G24     N/A  HX  94
$$

SUPPLEMENTAL OBSERVATIONS (WEST)

CITY           SKY/WX    TMP DP  RH WIND       PRES   REMARKS
MILLERS CREEK    N/A     91  72  52 SW18G29     N/A  HX  98
LBJ GRASSLAND    N/A     91  72  52 S12         N/A  HX  98
GRANBURY         N/A     91  68  46 S20G25      N/A  HX  95
COMANCHE         N/A     91  70  49 SW16G25     N/A  HX  97
HAMBY            N/A     91  70  49 S20G28      N/A  HX  97
IVIE RESERVOIR   N/A     91  68  46 S15         N/A  HX  95
COLORADO BEND    N/A    N/A N/A N/A S13G21      N/A
$$

SUPPLEMENTAL OBSERVATIONS (EAST)

CITY           SKY/WX    TMP DP  RH WIND       PRES   REMARKS
CLARKSVILLE      N/A     90  73  58 SW6G17      N/A  HX  98
TEXARKANA        N/A     88  73  62 SW7         N/A  HX  96
LINDEN           N/A     90  73  58 SW5         N/A  HX  98
CADDO LAKE       N/A     90  73  58 SW5         N/A  HX  98
GILMER           N/A     91  73  55 SW8G16      N/A  HX 100
HENDERSON        N/A     88  73  62 SW15        N/A  HX  96
LUFKIN           N/A     90  88  94 MISG        N/A  HX 124
N SABINE NF      N/A     91  75  59 MISG        N/A  HX 102
S SABINE NF      N/A     91  79  66 SW5         N/A  HX 107
$$

SUPPLEMENTAL OBSERVATIONS ARE A COLLECTION OF AUTOMATED INSTRUMENTS
THAT ARE MAINTAINED BY A VARIETY OF FEDERAL AND STATE AGENCIES.
CERTAIN ELEMENTS...SUCH AS HUMIDITY VALUES AND SUSTAINED WIND
SPEEDS...MAY BE APPROXIMATED.